• In Belgien
  • Länderverzeichnis
  • Für 7 Tage
  • Wassertemperatur
  • Satellitenkarten
  • Wetterkarte
  • Widgets
  • user-avatar
    Anmelden

    Stündliche Wetter Ath

    Heute, 18 Oktober, Donnerstag

    Zeit Temperatur Niederschläge Wind Luftdruck Luftfeuchtigkeit
    00:00 +13°C° 0 mm 2 m/S 763 mmHg 89%
    01:00 +12°C° 0 mm 3 m/S 763 mmHg 90%
    02:00 +11°C° 0 mm 3 m/S 763 mmHg 91%
    03:00 +11°C° 0 mm 3 m/S 763 mmHg 92%
    04:00 +11°C° 0 mm 3 m/S 763 mmHg 92%
    05:00 +11°C° 0 mm 3 m/S 763 mmHg 93%
    06:00 +11°C° 0 mm 3 m/S 763 mmHg 94%
    07:00 +12°C° 0 mm 3 m/S 763 mmHg 89%
    08:00 +13°C° 0 mm 4 m/S 763 mmHg 85%
    09:00 +14°C° 0 mm 5 m/S 764 mmHg 81%
    10:00 +15°C° 0 mm 5 m/S 764 mmHg 77%
    11:00 +16°C° 0 mm 5 m/S 764 mmHg 73%
    12:00 +17°C° 0 mm 5 m/S 764 mmHg 69%
    13:00 +17°C° 0 mm 5 m/S 763 mmHg 69%
    14:00 +17°C° 0 mm 5 m/S 763 mmHg 69%
    15:00 +17°C° 0 mm 5 m/S 763 mmHg 69%
    16:00 +15°C° 0 mm 4 m/S 763 mmHg 73%
    17:00 +14°C° 0 mm 4 m/S 763 mmHg 78%
    18:00 +13°C° 0 mm 4 m/S 764 mmHg 83%
    19:00 +12°C° 0 mm 3 m/S 764 mmHg 85%
    20:00 +12°C° 0 mm 3 m/S 764 mmHg 86%
    21:00 +11°C° 0 mm 3 m/S 764 mmHg 88%
    22:00 +11°C° 0 mm 3 m/S 764 mmHg 89%
    23:00 +10°C° 0 mm 3 m/S 764 mmHg 90%

    Morgen, 19 Oktober, Freitag

    Zeit Temperatur Niederschläge Wind Luftdruck Luftfeuchtigkeit
    00:00 +10°C° 0 mm 3 m/S 764 mmHg 91%
    01:00 +10°C° 0 mm 3 m/S 764 mmHg 92%
    02:00 +9°C° 0 mm 3 m/S 764 mmHg 93%
    03:00 +9°C° 0 mm 3 m/S 764 mmHg 94%
    04:00 +9°C° 0 mm 3 m/S 764 mmHg 94%
    05:00 +9°C° 0 mm 3 m/S 764 mmHg 95%
    06:00 +8°C° 0 mm 3 m/S 764 mmHg 95%
    07:00 +10°C° 0 mm 3 m/S 765 mmHg 90%
    08:00 +11°C° 0 mm 3 m/S 765 mmHg 85%
    09:00 +12°C° 0 mm 3 m/S 765 mmHg 80%
    10:00 +14°C° 0 mm 3 m/S 765 mmHg 75%
    11:00 +16°C° 0 mm 3 m/S 765 mmHg 69%
    12:00 +18°C° 0 mm 3 m/S 765 mmHg 64%
    13:00 +18°C° 0 mm 3 m/S 765 mmHg 64%
    14:00 +18°C° 0 mm 3 m/S 765 mmHg 64%
    15:00 +18°C° 0 mm 3 m/S 765 mmHg 64%
    16:00 +16°C° 0 mm 3 m/S 765 mmHg 69%
    17:00 +13°C° 0 mm 3 m/S 765 mmHg 75%
    18:00 +12°C° 0 mm 3 m/S 766 mmHg 80%
    19:00 +11°C° 0 mm 3 m/S 766 mmHg 81%
    20:00 +11°C° 0 mm 3 m/S 766 mmHg 81%
    21:00 +10°C° 0 mm 2 m/S 767 mmHg 81%
    22:00 +10°C° 0 mm 2 m/S 767 mmHg 82%
    23:00 +9°C° 0 mm 2 m/S 767 mmHg 83%

    übermorgen, 20 Oktober, Samstag

    Zeit Temperatur Niederschläge Wind Luftdruck Luftfeuchtigkeit
    00:00 +9°C° 0 mm 2 m/S 767 mmHg 83%
    01:00 +8°C° 0 mm 2 m/S 767 mmHg 85%
    02:00 +8°C° 0 mm 2 m/S 767 mmHg 86%
    03:00 +8°C° 0 mm 2 m/S 768 mmHg 87%
    04:00 +7°C° 0 mm 2 m/S 768 mmHg 87%
    05:00 +7°C° 0 mm 2 m/S 768 mmHg 88%
    06:00 +7°C° 0 mm 2 m/S 768 mmHg 88%
    07:00 +8°C° 0 mm 2 m/S 769 mmHg 82%
    08:00 +10°C° 0 mm 2 m/S 769 mmHg 77%
    09:00 +12°C° 0 mm 2 m/S 770 mmHg 71%
    10:00 +14°C° 0 mm 2 m/S 770 mmHg 65%
    11:00 +14°C° 0 mm 3 m/S 770 mmHg 58%
    12:00 +16°C° 0 mm 3 m/S 770 mmHg 52%
    13:00 +16°C° 0 mm 3 m/S 770 mmHg 52%
    14:00 +17°C° 0 mm 2 m/S 769 mmHg 52%
    15:00 +17°C° 0 mm 2 m/S 769 mmHg 52%
    16:00 +15°C° 0 mm 2 m/S 769 mmHg 57%
    17:00 +13°C° 0 mm 2 m/S 769 mmHg 62%
    18:00 +10°C° 0 mm 2 m/S 770 mmHg 66%
    19:00 +10°C° 0 mm 2 m/S 770 mmHg 68%
    20:00 +9°C° 0 mm 2 m/S 770 mmHg 70%
    21:00 +9°C° 0 mm 2 m/S 770 mmHg 71%
    22:00 +8°C° 0 mm 2 m/S 770 mmHg 73%
    23:00 +9°C° 0 mm 1 m/S 770 mmHg 74%

    21 Oktober, Sonntag

    Zeit Temperatur Niederschläge Wind Luftdruck Luftfeuchtigkeit
    00:00 +9°C° 0 mm 1 m/S 770 mmHg 75%
    01:00 +8°C° 0 mm 1 m/S 770 mmHg 76%
    02:00 +8°C° 0 mm 1 m/S 769 mmHg 76%
    03:00 +8°C° 0 mm 1 m/S 769 mmHg 77%
    04:00 +8°C° 0 mm 1 m/S 769 mmHg 77%
    05:00 +8°C° 0 mm 1 m/S 769 mmHg 77%
    06:00 +7°C° 0 mm 1 m/S 769 mmHg 77%
    07:00 +9°C° 0 mm 1 m/S 769 mmHg 70%
    08:00 +11°C° 0 mm 1 m/S 769 mmHg 64%
    09:00 +13°C° 0 mm 1 m/S 768 mmHg 57%
    10:00 +15°C° 0 mm 1 m/S 768 mmHg 53%
    11:00 +15°C° 0 mm 0 m/S 768 mmHg 48%
    12:00 +17°C° 0 mm 0 m/S 768 mmHg 43%
    13:00 +17°C° 0 mm 0 m/S 767 mmHg 45%
    14:00 +17°C° 0 mm 0 m/S 767 mmHg 46%
    15:00 +19°C° 0 mm 1 m/S 767 mmHg 47%
    16:00 +16°C° 0 mm 1 m/S 767 mmHg 52%
    17:00 +14°C° 0 mm 1 m/S 767 mmHg 57%
    18:00 +12°C° 0 mm 1 m/S 767 mmHg 62%
    19:00 +12°C° 0 mm 1 m/S 767 mmHg 63%
    20:00 +11°C° 0 mm 1 m/S 767 mmHg 65%
    21:00 +10°C° 0 mm 0 m/S 767 mmHg 66%
    22:00 +10°C° 0 mm 1 m/S 767 mmHg 66%
    23:00 +10°C° 0 mm 1 m/S 767 mmHg 66%

    22 Oktober, Montag

    Zeit Temperatur Niederschläge Wind Luftdruck Luftfeuchtigkeit
    00:00 +10°C° 0 mm 1 m/S 767 mmHg 66%
    01:00 +10°C° 0 mm 1 m/S 767 mmHg 68%
    02:00 +10°C° 0 mm 1 m/S 768 mmHg 70%
    03:00 +10°C° 0 mm 1 m/S 768 mmHg 72%
    04:00 +10°C° 0 mm 2 m/S 768 mmHg 76%
    05:00 +10°C° 0 mm 2 m/S 768 mmHg 80%
    06:00 +12°C° 0 mm 2 m/S 768 mmHg 85%
    07:00 +11°C° 0.1 mm 3 m/S 769 mmHg 85%
    08:00 +12°C° 0.1 mm 4 m/S 769 mmHg 85%
    09:00 +12°C° 0.1 mm 5 m/S 770 mmHg 86%
    10:00 +13°C° 0 mm 5 m/S 770 mmHg 82%
    11:00 +13°C° 0 mm 5 m/S 770 mmHg 78%
    12:00 +13°C° 0 mm 5 m/S 771 mmHg 74%
    13:00 +13°C° 0 mm 5 m/S 771 mmHg 71%
    14:00 +13°C° 0 mm 5 m/S 770 mmHg 68%
    15:00 +14°C° 0 mm 5 m/S 770 mmHg 65%
    16:00 +12°C° 0 mm 5 m/S 771 mmHg 68%
    17:00 +11°C° 0 mm 4 m/S 771 mmHg 71%
    18:00 +9°C° 0 mm 3 m/S 771 mmHg 75%
    19:00 +9°C° 0 mm 3 m/S 771 mmHg 75%
    20:00 +9°C° 0 mm 3 m/S 772 mmHg 76%
    21:00 +8°C° 0 mm 2 m/S 772 mmHg 76%
    22:00 +8°C° 0 mm 2 m/S 771 mmHg 77%
    23:00 +9°C° 0 mm 2 m/S 771 mmHg 77%

    23 Oktober, Dienstag

    Zeit Temperatur Niederschläge Wind Luftdruck Luftfeuchtigkeit
    00:00 +9°C° 0 mm 2 m/S 771 mmHg 77%
    01:00 +9°C° 0 mm 2 m/S 770 mmHg 78%
    02:00 +9°C° 0 mm 2 m/S 770 mmHg 78%
    03:00 +9°C° 0 mm 2 m/S 770 mmHg 78%
    04:00 +9°C° 0 mm 3 m/S 769 mmHg 80%
    05:00 +9°C° 0 mm 3 m/S 768 mmHg 81%
    06:00 +9°C° 0 mm 3 m/S 768 mmHg 82%
    07:00 +8°C° 0 mm 4 m/S 768 mmHg 81%
    08:00 +9°C° 0 mm 5 m/S 767 mmHg 79%
    09:00 +10°C° 0 mm 5 m/S 767 mmHg 78%
    10:00 +12°C° 0.3 mm 5 m/S 766 mmHg 79%
    11:00 +12°C° 0.3 mm 5 m/S 766 mmHg 80%
    12:00 +11°C° 0.3 mm 6 m/S 766 mmHg 82%
    13:00 +12°C° 0.4 mm 5 m/S 765 mmHg 82%
    14:00 +12°C° 0.4 mm 5 m/S 765 mmHg 82%
    15:00 +12°C° 0.4 mm 5 m/S 765 mmHg 83%
    16:00 +12°C° 0.2 mm 5 m/S 765 mmHg 84%
    17:00 +12°C° 0.2 mm 4 m/S 765 mmHg 85%
    18:00 +11°C° 0.2 mm 4 m/S 765 mmHg 86%
    19:00 +11°C° 0.2 mm 4 m/S 765 mmHg 86%
    20:00 +11°C° 0.2 mm 3 m/S 765 mmHg 87%
    21:00 +11°C° 0.2 mm 3 m/S 766 mmHg 87%
    22:00 +11°C° 0.2 mm 3 m/S 766 mmHg 87%
    23:00 +12°C° 0.2 mm 2 m/S 766 mmHg 87%
    Mehr zeigen